EW7130 Weather Reports


time (UTC)temp
C
wind
direction
speed
KPH
gust
KPH
rain 1hr
cm
rain 24hr
cm
rain mn
cm
humidity
%
barometer
mb
20260508183416 21 58 6.4 9.7 0.00 0.00 0.00 37 1024.4
20260508182911 21 330 11.3 14.5 0.00 0.00 0.00 41 1024.5
20260508182409 22 23 1.6 3.2 0.00 0.00 0.00 37 1024.1
20260508181904 21 67 1.6 4.8 0.00 0.00 0.00 39 1024.4
20260508181401 22 46 0.0 4.8 0.00 0.00 0.00 37 1024.4
20260508180858 21 68 4.8 9.7 0.00 0.00 0.00 38 1024.6
20260508180354 21 51 3.2 8.0 0.00 0.00 0.00 38 1024.8
20260508175845 22 13 1.6 8.0 0.00 0.00 0.00 39 1024.7
20260508175342 21 305 6.4 14.5 0.00 0.00 0.00 39 1025.0
20260508174840 21 14 1.6 3.2 0.00 0.00 0.00 37 1024.9
20260508174337 21 269 4.8 12.9 0.00 0.00 0.00 40 1025.0
20260508173833 21 23 1.6 4.8 0.00 0.00 0.00 39 1025.0
20260508173331 22 40 0.0 3.2 0.00 0.00 0.00 36 1025.0
20260508172826 21 27 3.2 8.0 0.00 0.00 0.00 39 1025.2
20260508172324 21 342 1.6 8.0 0.00 0.00 0.00 39 1025.1
20260508171820 21 125 4.8 8.0 0.00 0.00 0.00 37 1025.5
20260508171316 20 73 0.0 3.2 0.00 0.00 0.00 38 1025.7
20260508170813 20 335 8.0 11.3 0.00 0.00 0.00 40 1025.7
20260508170312 20 32 4.8 8.0 0.00 0.00 0.00 35 1025.9
20260508165808 20 73 0.0 8.0 0.00 0.00 0.00 38 1025.9
20260508165307 20 65 0.0 4.8 0.00 0.00 0.00 37 1026.1
20260508164801 19 305 4.8 14.5 0.00 0.00 0.00 38 1026.3
20260508164258 20 240 1.6 11.3 0.00 0.00 0.00 39 1026.6
20260508163756 20 38 1.6 8.0 0.00 0.00 0.00 40 1026.4
20260508163254 19 44 0.0 8.0 0.00 0.00 0.00 42 1026.7
20260508162749 18 329 4.8 11.3 0.00 0.00 0.00 42 1026.9
20260508162246 19 79 3.2 4.8 0.00 0.00 0.00 43 1026.8
20260508161743 20 107 3.2 9.7 0.00 0.00 0.00 44 1026.8
20260508161240 18 61 3.2 17.7 0.00 0.00 0.00 46 1026.9
20260508160738 19 59 1.6 4.8 0.00 0.00 0.00 43 1027.0
20260508160236 20 317 6.4 8.0 0.00 0.00 0.00 44 1027.1
20260508155726 18 105 4.8 8.0 0.00 0.00 0.00 45 1027.5
20260508155224 18 92 1.6 4.8 0.00 0.00 0.00 47 1027.5
20260508154720 18 37 8.0 11.3 0.00 0.00 0.00 47 1027.2
20260508154218 18 148 1.6 3.2 0.00 0.00 0.00 53 1027.3
20260508153714 18 61 0.0 3.2 0.00 0.00 0.00 42 1027.5
20260508153211 18 119 4.8 4.8 0.00 0.00 0.00 48 1027.4
20260508152707 18 24 1.6 4.8 0.00 0.00 0.00 45 1027.5
20260508152203 18 309 1.6 3.2 0.00 0.00 0.00 46 1027.4
20260508151700 17 51 0.0 4.8 0.00 0.00 0.00 52 1027.7
20260508151157 17 335 3.2 8.0 0.00 0.00 0.00 53 1027.5
20260508150654 17 349 0.0 3.2 0.00 0.00 0.00 66 1027.4
20260508150151 16 102 1.6 4.8 0.00 0.00 0.00 72 1027.3
20260508145646 16 199 3.2 4.8 0.00 0.00 0.00 70 1027.4
20260508145143 15 1 1.6 3.2 0.00 0.00 0.00 80 1027.5
20260508144641 15 117 1.6 4.8 0.00 0.00 0.00 80 1027.5
20260508144138 15 8 1.6 3.2 0.00 0.00 0.00 71 1027.6
20260508143635 14 357 3.2 3.2 0.00 0.00 0.00 72 1027.7
20260508143132 15 35 1.6 3.2 0.00 0.00 0.00 74 1027.6
20260508142628 14 129 0.0 1.6 0.00 0.00 0.00 78 1027.6
20260508142125 14 116 3.2 4.8 0.00 0.00 0.00 80 1027.7
20260508141622 13 76 0.0 3.2 0.00 0.00 0.00 83 1027.5
20260508141120 13 171 3.2 3.2 0.00 0.00 0.00 81 1027.6
20260508140617 12 107 3.2 3.2 0.00 0.00 0.00 82 1027.9
20260508140114 12 79 1.6 3.2 0.00 0.00 0.00 82 1027.7
20260508135608 11 348 1.6 3.2 0.00 0.00 0.00 84 1027.8
20260508135105 10 357 1.6 8.0 0.00 0.00 0.00 84 1027.9
20260508134602 11 58 0.0 4.8 0.00 0.00 0.00 86 1027.8
20260508134059 11 60 0.0 0.0 0.00 0.00 0.00 86 1027.8
20260508133555 11 33 0.0 0.0 0.00 0.00 0.00 86 1028.0
20260508133053 8 51 0.0 3.2 0.00 0.00 0.00 92 1028.1
20260508132551 8 334 3.2 4.8 0.00 0.00 0.00 93 1028.0
20260508132048 8 321 3.2 4.8 0.00 0.00 0.00 93 1027.8
20260508131543 8 358 3.2 4.8 0.00 0.00 0.00 93 1028.0
20260508131040 7 4 4.8 4.8 0.00 0.00 0.00 95 1027.9
20260508130537 7 293 4.8 8.0 0.00 0.00 0.00 96 1028.1
20260508130033 7 18 1.6 4.8 0.00 0.00 0.00 97 1028.0
20260508125529 6 7 1.6 4.8 0.00 0.00 0.00 98 1028.0
20260508125027 6 5 1.6 3.2 0.00 0.00 0.00 98 1028.0
20260508124524 6 20 0.0 4.8 0.00 0.00 0.00 99 1028.1
20260508124021 6 28 0.0 3.2 0.00 0.00 0.00 99 1028.1
20260508123520 6 307 4.8 8.0 0.00 0.00 0.00 99 1028.2
20260508123016 6 6 1.6 1.6 0.00 0.00 0.00 99 1028.1
20260508122513 6 6 3.2 8.0 0.00 0.00 0.00 99 1028.4
20260508122010 5 37 0.0 3.2 0.00 0.00 0.00 99 1028.2
20260508121508 5 1 1.6 4.8 0.00 0.00 0.00 99 1028.2
20260508121006 5 0 0.0 1.6 0.00 0.00 0.00 99 1028.1
20260508120503 5 1 0.0 1.6 0.00 0.00 0.00 99 1028.1
20260508120001 5 354 0.0 0.0 0.00 0.00 0.00 99 1028.1
20260508115459 5 37 0.0 0.0 0.00 0.00 0.00 99 1027.9
20260508114955 5 27 0.0 0.0 0.00 0.00 0.00 99 1027.8
20260508114452 5 35 0.0 0.0 0.00 0.00 0.00 99 1027.7
20260508113948 5 31 0.0 0.0 0.00 0.00 0.00 99 1027.7
20260508113446 5 27 0.0 1.6 0.00 0.00 0.00 99 1027.8
20260508112943 5 10 0.0 1.6 0.00 0.00 0.00 99 1027.7
20260508112440 5 62 0.0 0.0 0.00 0.00 0.00 99 1027.6
20260508111936 5 62 0.0 0.0 0.00 0.00 0.00 99 1027.6
20260508111433 5 64 0.0 0.0 0.00 0.00 0.00 99 1027.6
20260508110930 5 65 0.0 0.0 0.00 0.00 0.00 99 1027.4
20260508110428 5 58 0.0 0.0 0.00 0.00 0.00 99 1027.4
20260508105928 5 68 0.0 0.0 0.00 0.00 0.00 99 1027.4
20260508105425 5 71 0.0 0.0 0.00 0.00 0.00 99 1027.3
20260508104922 4 85 0.0 1.6 0.00 0.00 0.00 99 1027.4
20260508104419 4 69 0.0 0.0 0.00 0.00 0.00 99 1027.3
20260508103916 4 78 0.0 0.0 0.00 0.00 0.00 99 1027.2
20260508103413 4 72 0.0 1.6 0.00 0.00 0.00 99 1027.2
20260508102910 4 69 0.0 0.0 0.00 0.00 0.00 99 1027.2
20260508102409 5 74 0.0 0.0 0.00 0.00 0.00 99 1027.0
20260508101905 4 66 0.0 0.0 0.00 0.00 0.00 99 1027.3
20260508101403 4 67 0.0 0.0 0.00 0.00 0.00 99 1027.3
20260508100900 4 70 0.0 0.0 0.00 0.00 0.00 99 1027.3
20260508100359 4 61 0.0 0.0 0.00 0.00 0.00 99 1027.2
20260508095854 4 63 0.0 1.6 0.00 0.00 0.00 99 1027.0
20260508095352 4 64 0.0 1.6 0.00 0.00 0.00 99 1027.1
20260508094848 4 62 0.0 0.0 0.00 0.00 0.00 99 1027.2
20260508094345 4 75 1.6 3.2 0.00 0.00 0.00 99 1027.0
20260508093842 4 41 0.0 0.0 0.00 0.00 0.00 99 1026.9
20260508093340 4 41 0.0 0.0 0.00 0.00 0.00 99 1027.1
20260508092837 4 67 0.0 0.0 0.00 0.00 0.00 99 1027.0
20260508092335 4 70 1.6 3.2 0.00 0.00 0.00 99 1027.1
20260508091833 4 72 0.0 1.6 0.00 0.00 0.00 99 1027.0
20260508091329 4 76 0.0 3.2 0.00 0.00 0.00 99 1026.9
20260508090827 4 70 0.0 1.6 0.00 0.00 0.00 99 1027.1
20260508090325 3 85 3.2 3.2 0.00 0.00 0.00 99 1026.8
20260508085820 3 62 0.0 1.6 0.00 0.00 0.00 99 1026.9
20260508085318 3 77 0.0 3.2 0.00 0.00 0.00 99 1026.7
20260508084814 3 83 3.2 4.8 0.00 0.00 0.00 99 1026.7
20260508084311 3 76 1.6 3.2 0.00 0.00 0.00 99 1026.9
20260508083809 3 77 0.0 0.0 0.00 0.00 0.00 99 1026.7
20260508083306 3 64 0.0 1.6 0.00 0.00 0.00 99 1026.7
20260508082805 3 69 0.0 0.0 0.00 0.00 0.00 99 1026.8
20260508082306 3 48 0.0 0.0 0.00 0.00 0.00 99 1026.8
20260508081801 3 73 0.0 1.6 0.00 0.00 0.00 99 1026.6
20260508081257 3 63 0.0 3.2 0.00 0.00 0.00 99 1026.7
20260508080754 3 51 0.0 0.0 0.00 0.00 0.00 99 1026.6
20260508080253 3 59 0.0 0.0 0.00 0.00 0.00 99 1026.8
20260508075748 3 70 0.0 0.0 0.00 0.00 0.00 99 1026.4
20260508075245 3 63 0.0 0.0 0.00 0.00 0.00 99 1026.7
20260508074743 3 70 0.0 0.0 0.00 0.00 0.00 99 1026.4
20260508074240 3 66 0.0 0.0 0.00 0.00 0.00 99 1026.6
20260508073737 3 74 0.0 0.0 0.00 0.00 0.00 99 1026.4
20260508073235 3 74 0.0 0.0 0.00 0.00 0.00 99 1026.4
20260508072731 3 72 0.0 0.0 0.00 0.00 0.00 99 1026.7
20260508072228 3 72 0.0 0.0 0.00 0.00 0.00 99 1026.4
20260508071725 3 72 0.0 0.0 0.00 0.00 0.00 99 1026.4
20260508071224 3 21 0.0 0.0 0.00 0.00 0.00 99 1026.6
20260508070721 3 21 0.0 0.0 0.00 0.00 0.00 99 1026.6
20260508070220 3 21 0.0 0.0 0.00 0.00 0.00 99 1026.6
20260508065716 3 20 0.0 0.0 0.00 0.00 0.00 99 1026.3
20260508065214 3 20 0.0 0.0 0.00 0.00 0.00 99 1026.4
20260508064711 3 20 0.0 0.0 0.00 0.00 0.00 99 1026.4
20260508064210 3 20 0.0 0.0 0.00 0.00 0.00 99 1026.4
20260508063707 3 20 0.0 0.0 0.00 0.00 0.00 99 1026.6
20260508063204 3 20 0.0 0.0 0.00 0.00 0.00 99 1026.4
20260508062702 3 20 0.0 0.0 0.00 0.00 0.00 99 1026.7
20260508062159 3 20 0.0 0.0 0.00 0.00 0.00 99 1026.4
20260508061655 3 20 0.0 0.0 0.00 0.00 0.00 99 1026.7
20260508061153 3 20 0.0 0.0 0.00 0.00 0.00 99 1026.6
20260508060649 3 20 0.0 0.0 0.00 0.00 0.00 99 1026.4
20260508060147 3 20 0.0 0.0 0.00 0.00 0.00 99 1026.7
20260508055642 3 20 0.0 0.0 0.00 0.00 0.00 99 1026.6
20260508055139 3 20 0.0 0.0 0.00 0.00 0.00 99 1027.0
20260508054636 3 20 0.0 0.0 0.00 0.00 0.00 99 1027.0
20260508054133 4 20 0.0 0.0 0.00 0.00 0.00 99 1026.7
20260508053630 4 20 0.0 0.0 0.00 0.00 0.00 99 1026.6
20260508053128 4 20 0.0 0.0 0.00 0.00 0.00 99 1026.7
20260508052625 4 20 0.0 0.0 0.00 0.00 0.00 99 1026.8
20260508052122 5 20 0.0 0.0 0.00 0.00 0.00 99 1026.7
20260508051618 5 20 0.0 0.0 0.00 0.00 0.00 99 1026.8
20260508051113 5 20 0.0 0.0 0.00 0.00 0.00 99 1026.6
20260508050610 4 20 0.0 0.0 0.00 0.00 0.00 99 1026.6
20260508050108 4 20 0.0 0.0 0.00 0.00 0.00 99 1026.4
20260508045603 4 20 0.0 0.0 0.00 0.00 0.00 99 1026.4
20260508045102 5 20 0.0 0.0 0.00 0.00 0.00 99 1026.2
20260508044559 5 20 0.0 0.0 0.00 0.00 0.00 99 1026.2
20260508044054 5 20 0.0 0.0 0.00 0.00 0.00 99 1026.1
20260508043551 5 20 0.0 0.0 0.00 0.00 0.00 99 1026.1
20260508043049 5 20 0.0 0.0 0.00 0.00 0.00 99 1026.0
20260508042545 5 20 0.0 0.0 0.00 0.00 0.00 99 1026.2
20260508042043 5 20 0.0 0.0 0.00 0.00 0.00 99 1025.9
20260508041539 5 20 0.0 0.0 0.00 0.00 0.00 99 1026.0
20260508041035 5 20 0.0 0.0 0.00 0.00 0.00 99 1025.8
20260508040532 5 20 0.0 0.0 0.00 0.00 0.00 99 1025.8
20260508040030 5 20 0.0 0.0 0.00 0.05 0.05 99 1025.8
20260508035527 5 20 0.0 0.0 0.00 0.05 0.05 99 1026.0
20260508035024 5 20 0.0 0.0 0.00 0.05 0.05 99 1026.0
20260508034521 5 20 0.0 0.0 0.00 0.05 0.05 99 1025.8
20260508034018 5 20 0.0 0.0 0.00 0.05 0.05 99 1025.9
20260508033516 5 20 0.0 0.0 0.00 0.05 0.05 99 1025.9
20260508033014 5 20 0.0 0.0 0.00 0.05 0.05 99 1025.8
20260508032510 6 19 0.0 0.0 0.00 0.05 0.05 99 1025.9
20260508032008 6 19 0.0 0.0 0.00 0.05 0.05 99 1025.8
20260508031505 6 20 0.0 0.0 0.00 0.05 0.05 99 1025.7
20260508030959 6 20 0.0 0.0 0.00 0.05 0.05 99 1025.7
20260508030457 6 20 0.0 0.0 0.00 0.05 0.05 99 1025.8
20260508025954 6 19 0.0 0.0 0.00 0.05 0.05 99 1025.9
20260508025450 6 20 0.0 0.0 0.00 0.05 0.05 99 1025.8
20260508024948 6 20 0.0 0.0 0.00 0.05 0.05 98 1025.6
20260508024444 6 20 0.0 0.0 0.00 0.05 0.05 98 1025.5
20260508023941 7 20 0.0 0.0 0.00 0.05 0.05 98 1025.4
20260508023437 7 20 0.0 0.0 0.00 0.05 0.05 98 1025.4
20260508022935 7 20 0.0 0.0 0.00 0.05 0.05 98 1025.3
20260508022430 7 19 0.0 0.0 0.00 0.05 0.05 98 1025.2
20260508021927 7 19 0.0 0.0 0.00 0.05 0.05 97 1025.2
20260508021424 7 20 0.0 0.0 0.00 0.05 0.05 97 1025.2
20260508020919 7 19 0.0 0.0 0.00 0.05 0.05 97 1024.9
20260508020418 7 20 0.0 0.0 0.00 0.05 0.05 96 1024.8
20260508015914 7 20 0.0 0.0 0.00 0.05 0.05 96 1024.9
20260508015412 8 20 0.0 0.0 0.00 0.05 0.05 96 1024.7
20260508014908 8 20 0.0 0.0 0.00 0.05 0.05 96 1024.6
20260508014406 8 20 0.0 0.0 0.00 0.05 0.05 96 1024.7
20260508013902 8 20 0.0 0.0 0.00 0.05 0.05 95 1024.5
20260508013357 8 20 0.0 0.0 0.00 0.05 0.05 95 1024.5
20260508012855 8 20 0.0 0.0 0.00 0.05 0.05 94 1024.3
20260508012352 8 20 0.0 0.0 0.00 0.05 0.05 94 1024.3
20260508011850 9 20 0.0 0.0 0.00 0.05 0.05 93 1024.0
20260508011348 9 19 0.0 0.0 0.00 0.05 0.05 93 1024.0
20260508010844 9 20 0.0 0.0 0.00 0.05 0.05 92 1023.9
20260508010342 9 19 0.0 0.0 0.00 0.05 0.05 92 1024.0
20260508005839 10 19 0.0 0.0 0.00 0.05 0.05 91 1023.8
20260508005335 10 19 0.0 0.0 0.00 0.05 0.05 91 1023.9
20260508004831 10 19 0.0 1.6 0.00 0.05 0.05 90 1023.9
20260508004328 10 19 0.0 0.0 0.00 0.05 0.05 89 1023.8
20260508003824 10 19 0.0 1.6 0.00 0.05 0.05 88 1023.7
20260508003322 10 19 0.0 0.0 0.00 0.05 0.05 88 1023.6
20260508002819 11 19 0.0 0.0 0.00 0.05 0.05 87 1023.7
20260508002315 11 19 0.0 0.0 0.00 0.05 0.05 86 1023.8
20260508001811 11 19 0.0 1.6 0.00 0.05 0.05 85 1023.5
20260508001308 11 19 0.0 0.0 0.00 0.05 0.05 84 1023.6
20260508000803 12 19 0.0 0.0 0.00 0.05 0.05 83 1023.3
20260508000301 12 18 0.0 1.6 0.00 0.05 0.05 83 1023.2
20260507235757 12 18 0.0 0.0 0.00 0.05 0.05 81 1023.1
20260507235255 12 18 0.0 0.0 0.00 0.05 0.05 80 1023.1
20260507234751 12 18 0.0 0.0 0.00 0.05 0.05 80 1023.0
20260507234248 13 18 0.0 0.0 0.00 0.05 0.05 80 1022.9
20260507233744 13 18 0.0 0.0 0.00 0.05 0.05 78 1022.7
20260507233242 13 18 0.0 1.6 0.00 0.05 0.05 77 1022.9
20260507232740 13 19 0.0 0.0 0.00 0.05 0.05 73 1022.8
20260507232236 14 18 0.0 0.0 0.00 0.05 0.05 71 1022.7
20260507231733 14 18 0.0 0.0 0.00 0.05 0.05 70 1022.9
20260507231230 15 19 1.6 1.6 0.00 0.05 0.05 71 1022.8
20260507230726 16 6 1.6 1.6 0.00 0.05 0.05 66 1022.7
20260507230224 16 88 1.6 3.2 0.00 0.05 0.05 56 1022.7
20260507225723 16 118 4.8 4.8 0.00 0.05 0.05 63 1022.9
20260507225220 16 107 3.2 3.2 0.00 0.05 0.05 62 1022.7
20260507224716 16 114 8.0 9.7 0.00 0.05 0.05 61 1022.4
20260507224213 17 84 0.0 3.2 0.00 0.05 0.05 53 1022.5
20260507223709 17 56 1.6 8.0 0.00 0.05 0.05 52 1022.5
20260507223206 17 87 0.0 4.8 0.00 0.05 0.05 52 1022.5
20260507222703 17 142 1.6 8.0 0.00 0.05 0.05 52 1022.5
20260507222159 17 110 6.4 9.7 0.00 0.05 0.05 54 1022.3
20260507221656 18 145 4.8 9.7 0.00 0.05 0.05 51 1022.5
20260507221152 18 76 3.2 9.7 0.00 0.05 0.05 52 1022.4
20260507220649 18 143 1.6 8.0 0.00 0.05 0.05 52 1022.3
20260507220147 18 73 4.8 4.8 0.00 0.05 0.05 51 1022.3
20260507215643 18 6 3.2 4.8 0.00 0.05 0.05 56 1022.1
20260507215140 18 24 1.6 3.2 0.00 0.05 0.05 63 1022.2
20260507214637 17 319 1.6 3.2 0.00 0.05 0.05 63 1022.1
20260507214134 17 345 1.6 3.2 0.00 0.05 0.05 66 1021.9
20260507213630 16 105 1.6 1.6 0.00 0.05 0.05 71 1021.9
20260507213127 16 106 1.6 3.2 0.00 0.05 0.05 71 1022.2
20260507212623 16 146 8.0 8.0 0.00 0.05 0.05 70 1021.9
20260507212120 17 141 4.8 8.0 0.00 0.05 0.05 63 1021.9
20260507211617 17 86 1.6 3.2 0.00 0.05 0.05 66 1022.1
20260507211113 17 105 3.2 4.8 0.00 0.05 0.05 71 1021.8
20260507210611 17 203 1.6 8.0 0.00 0.05 0.05 61 1021.8
20260507210107 17 69 0.0 1.6 0.00 0.05 0.05 64 1021.9
20260507205603 17 39 0.0 1.6 0.00 0.05 0.05 61 1021.7
20260507205100 19 354 6.4 9.7 0.00 0.05 0.05 57 1021.7
20260507204556 18 30 0.0 8.0 0.00 0.05 0.05 56 1021.7
20260507204054 18 209 4.8 8.0 0.00 0.05 0.05 55 1021.9
20260507203552 18 4 1.6 11.3 0.00 0.05 0.05 59 1021.6
20260507203049 18 114 3.2 3.2 0.00 0.05 0.05 59 1021.8
20260507202544 17 56 0.0 8.0 0.00 0.05 0.05 58 1021.8
20260507202041 18 89 4.8 8.0 0.00 0.05 0.05 62 1021.9
20260507201536 18 85 1.6 1.6 0.00 0.05 0.05 57 1021.9
20260507201033 18 74 0.0 1.6 0.00 0.05 0.05 60 1022.1
20260507200529 17 95 3.2 4.8 0.00 0.05 0.05 59 1021.9
20260507200025 17 118 4.8 8.0 0.00 0.05 0.05 63 1022.2
20260507195522 17 106 1.6 4.8 0.00 0.05 0.05 59 1022.3
20260507195020 16 51 0.0 4.8 0.00 0.05 0.05 61 1022.4
20260507194516 17 23 4.8 8.0 0.00 0.05 0.05 61 1022.2
20260507194012 18 48 0.0 3.2 0.00 0.05 0.05 59 1022.4
20260507193509 17 21 1.6 9.7 0.00 0.05 0.05 60 1022.5
20260507193006 18 38 0.0 1.6 0.00 0.05 0.05 64 1022.5
20260507192502 17 57 0.0 0.0 0.00 0.05 0.05 58 1022.4
20260507191959 16 175 3.2 3.2 0.00 0.05 0.05 69 1022.5
20260507191454 16 36 0.0 1.6 0.00 0.05 0.05 66 1022.7
20260507190952 16 114 1.6 3.2 0.00 0.05 0.05 63 1022.8
20260507190449 16 129 4.8 9.7 0.00 0.05 0.05 63 1022.8
20260507185948 16 29 0.0 1.6 0.00 0.05 0.05 63 1022.9
20260507185445 17 122 1.6 4.8 0.00 0.05 0.05 62 1022.7
20260507184942 17 104 0.0 3.2 0.00 0.05 0.05 65 1022.9
20260507184440 17 54 0.0 1.6 0.00 0.05 0.05 60 1023.0
20260507183938 16 69 1.6 3.2 0.00 0.05 0.05 63 1023.1